sat.trackr.live / text

‹ back to catalog

KUIPER-00412

NORAD 68927 · 2026-098J

PAYLOAD ACTIVE UNKNOWN

§ Identity

Operator
Country
US
Launch date
2026-04-30
Launch site
FRGUI
Launch vehicle
Mass (kg)
RCS (m²)

External: N2YO · Heavens-Above · Gunter

§ Orbital elements

Epoch: 2026-05-24T12:18:07.113312Z

Period
93.74 min
Inclination
51.8764°
Eccentricity
0.0002389
Mean motion
15.36171573 rev/d
Perigee alt
455.8 km
Apogee alt
459.1 km
Semi-major
6,835.6 km
B*
-4.9129e-4
RAAN
181.5941°
Arg perigee
136.0910°
Mean anomaly
224.0267°
Rev number
371

§ Raw data

KUIPER-004121 68927U 26098J   26144.51258233 -.00017929  00000+0 -49129-3 0  99902 68927  51.8764 181.5941 0002389 136.0910 224.0267 15.36171573  3719

JSON: /api/v1/satellites/68927 · /tle

For live sub-satellite position, see the globe view (requires WebGL).

§ Visibility from observer

Set your observer location to see the next 7 days of passes ≥ 10°. The values pass through the URL so the page stays shareable.

No JS? Fill the form by hand. The geolocation button needs JavaScript.